User: anonymous   Login
Location: Caltech
(34.1382°N, 118.1253°W)
Time: 20:47:31
(UTC-07:00)
Language:

Iridium 94 - Orbit

View from above orbital plane
View from above orbital plane
View from above satellite
View from above satellite

Ground track
Ground track

The orbit data is extracted from the following two-line orbital elements,

1 27374U 02005C   14295.49195608  .00000306  00000-0  10219-3 0  6984
2 27374 086.3925 300.6365 0002406 044.8221 108.6951 14.34219058677102
Epoch (UTC): 22 October 2014 11:48:25
Eccentricity: 0.0002406
inclination: 86.3925°
perigee height: 776 km
apogee height: 779 km
right ascension of ascending node: 300.6365°
argument of perigee: 44.8221°
revolutions per day: 14.34219058
mean anomaly at epoch: 108.6951°
orbit number at epoch: 67710

The dashed part of the orbit path shows where the satellite is in the earth's shadow,  

DLR